[[{"header":{"parameterUnit":"m.s-1","parameterCategory":1,"la1":30.2991,"la2":30.254,"lo1":-89.0895,"lo2":-89.0444,"dy":0.0017,"dx":0.0017,"nx":28,"ny":28,"refTime":"2024-05-28T03:00:00:Z","depth":0,"parameterNumber":2,"parameterNumberName":"U-component_of_WINDS"},"data":[0,0,0,0,0,0,0,0,0,0,0,0,0,0,0,0,0,0,0,0,0,0,0,0,0,0,0,0,0,0,0,0,0,0,0,0,0,0,0,0,0,0,0,0,0,0,0,0,0,0,0,0,0,0,0,0,0,0,-1.368,-1.3679,0,-1.3577,-1.3576,-1.3574,-1.352,-1.352,-1.352,-1.352,-1.3416,-1.3414,-1.3411,0,0,0,0,0,0,0,0,0,0,0,0,0,-1.3834,-1.3831,-1.368,-1.3679,-1.3677,-1.3577,-1.3576,-1.3574,-1.352,-1.352,-1.352,-1.352,-1.3417,-1.3414,-1.3411,0,0,0,0,0,0,0,0,0,0,0,0,0,-1.3753,-1.383,-1.368,-1.3638,-1.3634,-1.3577,-1.3576,-1.3574,-1.352,-1.352,-1.352,-1.352,-1.3418,-1.3414,-1.341,-1.3388,0,0,-1.3398,-1.3396,0,0,0,0,0,0,0,0,-1.3757,-1.3747,-1.3646,-1.3641,-1.3636,-1.3561,-1.3592,-1.3512,-1.3521,-1.3564,-1.352,-1.352,-1.3465,-1.3457,-1.3438,-1.3383,-1.3379,-1.3398,-1.3395,-1.3393,-1.3392,0,0,0,0,0,0,0,-1.3763,-1.3751,-1.3639,-1.3645,-1.3638,-1.3626,-1.3614,-1.3576,-1.3516,-1.356,-1.3556,-1.3544,-1.3462,-1.3442,-1.3435,-1.3377,-1.3398,-1.3394,-1.3392,-1.339,-1.3302,-1.3302,0,0,0,0,0,0,-1.3775,-1.3756,-1.3642,-1.3636,-1.3697,-1.3623,-1.361,-1.3585,-1.3516,-1.3506,-1.3544,-1.3542,-1.3449,-1.344,-1.3431,-1.3402,-1.3393,-1.339,-1.3387,-1.3302,-1.3302,-1.3302,0,0,0,0,0,0,-1.3778,-1.3765,-1.3647,-1.3695,-1.3679,-1.3621,-1.3593,-1.3583,-1.3563,-1.3505,-1.3494,-1.3535,-1.3448,-1.3437,-1.34,-1.3398,-1.3388,-1.3384,-1.3302,-1.3302,-1.3302,-1.3343,0,0,0,0,0,0,-1.3783,-1.3767,-1.3757,-1.3695,-1.3677,-1.3616,-1.3593,-1.3581,-1.3556,-1.3552,-1.3493,-1.3483,-1.3447,-1.3406,-1.3396,-1.3392,-1.3381,-1.3302,-1.3302,-1.3302,-1.3342,-1.3345,-1.3347,0,0,0,0,0,-1.3789,-1.3772,-1.3756,-1.3743,-1.3662,-1.3616,-1.3605,-1.3564,-1.3556,-1.3546,-1.3509,-1.3485,-1.34,-1.3403,-1.3391,-1.3386,-1.3302,-1.3302,-1.3302,-1.3341,-1.3344,-1.3347,0,0,0,0,0,0,-1.3834,-1.3763,-1.3745,-1.3707,-1.3668,-1.3607,-1.3592,-1.3569,-1.3531,-1.3529,-1.3481,-1.3468,-1.3436,-1.3407,-1.3411,-1.3362,-1.3349,-1.3346,-1.3382,-1.3385,-1.3388,-1.3395,-1.3378,0,0,0,0,0,-1.384,-1.3807,-1.3747,-1.372,-1.3701,-1.3651,-1.3629,-1.3601,-1.3558,-1.3541,-1.3501,-1.3462,-1.3427,-1.3404,-1.3368,-1.3338,-1.3325,-1.3329,-1.3332,-1.3334,-1.3333,-1.3318,-1.3319,-1.3303,-1.3303,-1.3303,0,0,-1.3852,-1.3809,-1.3791,-1.3728,-1.3694,-1.3663,-1.3637,-1.3604,-1.358,-1.3536,-1.3499,-1.3469,-1.3422,-1.3389,-1.3372,-1.3364,-1.3335,-1.3335,-1.3337,-1.3334,-1.3318,-1.332,-1.3321,-1.3303,-1.3303,-1.3303,0,0,-1.3856,-1.382,-1.3794,-1.3762,-1.3711,-1.3678,-1.3672,-1.3615,-1.3593,-1.3555,-1.3522,-1.3495,-1.3434,-1.3403,-1.3379,-1.3376,-1.3352,-1.3365,-1.338,-1.3365,-1.3367,-1.3367,-1.3368,-1.3369,-1.3364,-1.3364,-1.3364,0,-1.3877,-1.3827,-1.3784,-1.3754,-1.3728,-1.3688,-1.3663,-1.3633,-1.3574,-1.3558,-1.355,-1.3475,-1.344,-1.34,-1.34,-1.3381,-1.3375,-1.3371,-1.337,-1.337,-1.337,-1.337,-1.3371,-1.3366,-1.3366,-1.3366,-1.3366,0,-1.3855,-1.3822,-1.3808,-1.3752,-1.3725,-1.3697,-1.3652,-1.363,-1.3606,-1.3575,-1.3538,-1.3496,-1.3452,-1.344,-1.3416,-1.3398,-1.3395,-1.3379,-1.3364,-1.3375,-1.3374,-1.3374,-1.3369,-1.3369,-1.3368,-1.3367,0,0,-1.3883,-1.3807,-1.3802,-1.3778,-1.3721,-1.3694,-1.3667,-1.3624,-1.3607,-1.3568,-1.3545,-1.3496,-1.3482,-1.3455,-1.3427,-1.3415,-1.3418,-1.34,-1.3399,-1.3406,-1.3398,-1.3411,-1.3412,-1.3402,-1.3402,-1.3402,-1.3403,0,-1.388,-1.3827,-1.379,-1.3752,-1.3722,-1.3685,-1.3661,-1.3625,-1.3595,-1.3567,-1.3535,-1.3502,-1.3485,-1.3469,-1.3454,-1.342,-1.3416,-1.342,-1.3382,-1.3381,-1.3395,-1.3411,-1.3423,-1.3426,-1.3402,-1.3402,-1.3402,0,-1.3869,-1.3832,-1.3792,-1.3741,-1.3727,-1.3706,-1.3665,-1.3638,-1.3597,-1.3577,-1.3549,-1.3521,-1.3492,-1.3481,-1.3442,-1.3446,-1.3428,-1.341,-1.3409,-1.3404,-1.3392,-1.3407,-1.3426,-1.3427,-1.3401,-1.3401,-1.3401,0,-1.3895,-1.3836,-1.3804,-1.3784,-1.3724,-1.371,-1.3685,-1.3644,-1.3622,-1.3587,-1.3572,-1.3535,-1.3514,-1.3487,-1.345,-1.3445,-1.3416,-1.3401,-1.34,-1.3401,-1.3395,-1.3396,-1.3412,-1.3383,-1.3383,-1.3383,-1.3383,0,-1.3895,-1.3872,-1.3815,-1.3796,-1.377,-1.3729,-1.3705,-1.3676,-1.3641,-1.3617,-1.3583,-1.3562,-1.3515,-1.3488,-1.346,-1.3433,-1.3424,-1.3408,-1.3401,-1.3411,-1.3414,-1.3399,-1.3398,-1.3383,-1.3383,-1.3383,-1.3383,0,-1.3919,-1.388,-1.3844,-1.379,-1.3777,-1.376,-1.3715,-1.3696,-1.3667,-1.3637,-1.3628,-1.3582,-1.3549,-1.3511,-1.3465,-1.3446,-1.3423,-1.3412,-1.3437,-1.3432,-1.3434,-1.3435,-1.3442,-1.3441,-1.3413,-1.3413,-1.3413,0,-1.3922,-1.3903,-1.3849,-1.3831,-1.3806,-1.3777,-1.3754,-1.3714,-1.3693,-1.3647,-1.3634,-1.3599,-1.3569,-1.3519,-1.3483,-1.3449,-1.3437,-1.3442,-1.3432,-1.3444,-1.3439,-1.3441,-1.344,-1.3445,-1.3445,-1.3446,-1.3446,0,-1.3931,-1.3914,-1.3882,-1.3846,-1.382,-1.3789,-1.3757,-1.3744,-1.3698,-1.3676,-1.3642,-1.3619,-1.3574,-1.3541,-1.3503,-1.3478,-1.3455,-1.345,-1.3448,-1.3458,-1.3474,-1.3467,-1.3445,-1.3449,-1.3449,-1.3449,-1.3449,-1.3448,-1.3945,-1.3928,-1.3888,-1.3855,-1.3827,-1.3799,-1.3779,-1.3749,-1.372,-1.368,-1.3659,-1.3626,-1.359,-1.3537,-1.3513,-1.3489,-1.348,-1.3477,-1.3477,-1.3477,-1.3481,-1.3478,-1.3482,-1.3482,-1.3481,-1.3481,-1.3481,0,-1.3954,-1.3927,-1.3898,-1.3854,-1.383,-1.3811,-1.3775,-1.3756,-1.3728,-1.3695,-1.3667,-1.3631,-1.3599,-1.3561,-1.3528,-1.3516,-1.3505,-1.3509,-1.3509,-1.3505,-1.3489,-1.3495,-1.3519,-1.3519,-1.3519,-1.3519,-1.3519,-1.3519,-1.3955,-1.3926,-1.3905,-1.3863,-1.3837,-1.3805,-1.3787,-1.3761,-1.3736,-1.3696,-1.367,-1.3646,-1.3612,-1.3577,-1.3548,-1.3538,-1.3528,-1.3535,-1.3522,-1.3509,-1.3505,-1.3502,-1.3507,-1.3533,-1.3533,-1.354,-1.354,-1.354]},{"header":{"parameterUnit":"m.s-1","parameterCategory":1,"la1":30.2991,"la2":30.254,"lo1":-89.0895,"lo2":-89.0444,"dy":0.0017,"dx":0.0017,"nx":28,"ny":28,"refTime":"2024-05-28T03:00:00:Z","depth":0,"parameterNumber":3,"parameterNumberName":"V-component_of_WINDS"},"data":[0,0,0,0,0,0,0,0,0,0,0,0,0,0,0,0,0,0,0,0,0,0,0,0,0,0,0,0,0,0,0,0,0,0,0,0,0,0,0,0,0,0,0,0,0,0,0,0,0,0,0,0,0,0,0,0,0,0,0.889,0.8891,0,0.8914,0.8914,0.8914,0.8921,0.8921,0.8921,0.8921,0.8943,0.8943,0.8944,0,0,0,0,0,0,0,0,0,0,0,0,0,0.8849,0.8849,0.889,0.8891,0.8891,0.8914,0.8914,0.8914,0.8921,0.8921,0.8921,0.8921,0.8942,0.8943,0.8944,0,0,0,0,0,0,0,0,0,0,0,0,0,0.8869,0.885,0.889,0.8897,0.8898,0.8914,0.8914,0.8915,0.8921,0.8921,0.8921,0.8921,0.8942,0.8943,0.8944,0.8954,0,0,0.8947,0.8948,0,0,0,0,0,0,0,0,0.8868,0.887,0.8896,0.8897,0.8898,0.8914,0.8907,0.8928,0.8921,0.8912,0.8921,0.8921,0.8933,0.8935,0.894,0.8955,0.8956,0.8947,0.8948,0.8948,0.8949,0,0,0,0,0,0,0,0.8866,0.8869,0.89,0.8896,0.8897,0.8898,0.8901,0.8911,0.8923,0.8913,0.8914,0.8916,0.8934,0.8939,0.894,0.8956,0.8947,0.8948,0.8949,0.8949,0.898,0.898,0,0,0,0,0,0,0.8864,0.8868,0.8899,0.89,0.8882,0.8899,0.8902,0.8909,0.8923,0.8925,0.8917,0.8917,0.8937,0.8939,0.8941,0.8953,0.8948,0.8949,0.895,0.898,0.898,0.898,0,0,0,0,0,0,0.8863,0.8867,0.8898,0.8884,0.8888,0.89,0.8908,0.891,0.8915,0.8926,0.8928,0.892,0.8937,0.894,0.8951,0.8954,0.895,0.8951,0.898,0.898,0.898,0.8977,0,0,0,0,0,0,0.8862,0.8866,0.8871,0.8885,0.8889,0.8908,0.8908,0.891,0.8917,0.8917,0.8929,0.8931,0.8937,0.8949,0.8952,0.8955,0.8952,0.8979,0.898,0.898,0.8977,0.8978,0.8978,0,0,0,0,0,0.886,0.8869,0.8871,0.8875,0.8895,0.8908,0.8911,0.8918,0.8917,0.8921,0.8928,0.8931,0.8953,0.895,0.8953,0.8957,0.8979,0.898,0.898,0.8977,0.8978,0.8978,0,0,0,0,0,0,0.8855,0.8871,0.8874,0.8887,0.8896,0.8909,0.8915,0.8918,0.8927,0.8927,0.8935,0.8938,0.8948,0.8954,0.895,0.8967,0.8966,0.8967,0.8963,0.8963,0.8964,0.8962,0.8953,0,0,0,0,0,0.8856,0.8866,0.8879,0.8889,0.8894,0.8904,0.8909,0.8914,0.8924,0.8927,0.8935,0.8944,0.8953,0.8958,0.8967,0.8978,0.898,0.8982,0.8982,0.8983,0.8983,0.8989,0.8989,0.8982,0.8982,0.8982,0,0,0.8857,0.8867,0.8872,0.8888,0.8896,0.8905,0.8907,0.8917,0.8923,0.8929,0.894,0.8946,0.8956,0.8967,0.8972,0.8972,0.8986,0.8983,0.8983,0.8984,0.8989,0.899,0.8991,0.8982,0.8982,0.8982,0,0,0.8863,0.8872,0.8881,0.8889,0.8901,0.8907,0.8909,0.8922,0.8926,0.8937,0.8941,0.8949,0.8964,0.8971,0.8976,0.8984,0.8987,0.8987,0.8988,0.8994,0.8994,0.8995,0.8997,0.8998,0.8988,0.8988,0.8988,0,0.8863,0.8878,0.8886,0.8895,0.8902,0.8907,0.8916,0.8923,0.8937,0.8941,0.8941,0.8959,0.8967,0.8979,0.8981,0.8985,0.8987,0.8986,0.8994,0.8994,0.8995,0.8997,0.8998,0.8988,0.8988,0.8988,0.8988,0,0.8876,0.8886,0.8892,0.8906,0.8913,0.8922,0.893,0.8936,0.894,0.8946,0.8957,0.8966,0.8976,0.8979,0.8983,0.8992,0.8991,0.8992,0.8992,0.8995,0.8998,0.8999,0.8988,0.8988,0.8988,0.8988,0,0,0.888,0.8898,0.89,0.8905,0.8919,0.8926,0.8935,0.8946,0.895,0.8959,0.8966,0.8979,0.898,0.8986,0.899,0.8995,0.9,0.8995,0.8995,0.8995,0.9009,0.9008,0.9009,0.9001,0.9002,0.9002,0.9008,0,0.8888,0.8905,0.8912,0.8925,0.8934,0.8939,0.8947,0.8955,0.8961,0.8968,0.8974,0.8983,0.8983,0.8987,0.8992,0.8998,0.9002,0.8998,0.9007,0.9007,0.9004,0.901,0.9009,0.9015,0.9009,0.9009,0.9009,0,0.8899,0.8908,0.8923,0.8934,0.8938,0.8945,0.8955,0.8962,0.8971,0.8975,0.8982,0.8986,0.8994,0.8993,0.9004,0.9001,0.9005,0.9009,0.9009,0.901,0.9008,0.9011,0.9017,0.9017,0.9011,0.9011,0.901,0,0.89,0.8916,0.8927,0.8931,0.8945,0.895,0.8955,0.8964,0.897,0.8978,0.8982,0.8991,0.8996,0.9002,0.9008,0.9007,0.9019,0.9018,0.9021,0.9021,0.9023,0.9023,0.903,0.9027,0.9027,0.9027,0.9027,0,0.8907,0.8916,0.8927,0.8933,0.8943,0.895,0.8959,0.8965,0.8972,0.8979,0.8984,0.899,0.8998,0.9005,0.901,0.9018,0.902,0.9023,0.9024,0.9022,0.9022,0.9025,0.9025,0.9027,0.9027,0.9027,0.9027,0,0.891,0.8918,0.8929,0.8941,0.8944,0.895,0.896,0.8966,0.8972,0.8981,0.8983,0.8992,0.9,0.9007,0.9018,0.9021,0.9029,0.9031,0.9026,0.9027,0.903,0.9029,0.9038,0.904,0.9036,0.9036,0.9036,0,0.8914,0.892,0.8933,0.8938,0.8944,0.8953,0.8958,0.8966,0.8971,0.8982,0.8986,0.8995,0.9003,0.9016,0.9023,0.9031,0.9032,0.9035,0.9033,0.9031,0.9031,0.9031,0.9031,0.9035,0.9035,0.9035,0.9035,0,0.892,0.8924,0.8932,0.8942,0.8949,0.8957,0.8965,0.8969,0.8977,0.8983,0.8992,0.8998,0.9009,0.9018,0.9026,0.9031,0.9034,0.9035,0.9036,0.9034,0.9032,0.9033,0.9026,0.9035,0.9035,0.9035,0.9035,0.9035,0.8923,0.8929,0.8939,0.8948,0.8955,0.8962,0.8968,0.8974,0.8982,0.8992,0.8996,0.9005,0.9013,0.9025,0.903,0.9036,0.9037,0.9038,0.9039,0.9039,0.9039,0.9031,0.9038,0.9038,0.9038,0.9038,0.9038,0,0.8929,0.8936,0.8944,0.8955,0.8962,0.8965,0.8973,0.8979,0.8987,0.8994,0.9002,0.9012,0.902,0.9027,0.9035,0.9039,0.9041,0.9041,0.9041,0.9042,0.9038,0.9036,0.904,0.904,0.904,0.904,0.904,0.904,0.8933,0.8943,0.8948,0.896,0.8967,0.8976,0.898,0.8987,0.8993,0.9004,0.9011,0.9016,0.9023,0.9032,0.9039,0.9041,0.9043,0.9043,0.9046,0.9042,0.9042,0.9042,0.904,0.9044,0.9044,0.9048,0.9049,0.9049]}]]